Theta_e
336 342 349 350 349 348 346 345 344 342 341 342 343 342 341 339 339 339 342 341 340 337 337 340 337 338 336 336 335 335 334 335 334 335 335 336 335 337 338 337 336 334 337
339 345 347 349 349 348 347 344 342 342 340 340 340 344 341 339 339 338 339 339 337 336 337 337 336 337 337 336 336 335 334 334 333 330 331 334 333 334 336 335 335 333 337
341 345 346 348 350 348 346 344 343 340 341 338 339 340 341 339 338 337 337 337 336 336 337 335 335 336 335 336 335 333 335 333 332 333 332 327 328 334 334 336 336 336 337
342 344 345 345 347 347 345 344 342 341 341 340 342 342 342 340 338 337 336 335 335 336 336 336 336 335 335 336 336 336 334 333 332 330 325 327 327 335 335 335 335 336 338
341 344 343 345 346 345 344 343 342 341 341 339 342 340 340 340 337 336 336 334 335 335 335 335 335 334 334 335 334 333 334 332 331 326 323 327 328 335 336 335 336 336 336
340 342 342 345 346 345 343 342 341 340 341 340 339 339 340 340 337 336 335 333 334 334 333 334 334 333 333 333 334 333 333 331 327 321 324 329 330 335 335 335 336 335 335
338 340 342 344 345 344 343 342 342 341 339 339 339 342 340 340 337 336 334 333 332 332 332 333 332 333 332 332 332 332 331 329 322 323 324 325 327 334 336 334 335 334 334
337 340 341 337 340 342 343 342 342 340 340 340 340 340 339 339 338 336 334 332 331 331 332 332 331 331 330 330 330 329 329 327 324 322 322 323 333 333 333 334 333 334 333
337 338 338 338 337 336 338 339 339 339 339 338 337 337 336 336 337 335 334 333 331 331 332 331 331 331 330 329 328 327 326 325 320 322 324 323 333 333 334 332 332 332 332
335 336 337 335 335 335 335 332 334 336 336 335 333 331 330 330 330 331 329 334 332 331 331 331 331 330 329 328 327 326 324 322 319 319 320 322 331 330 332 331 331 331 331
333 334 334 333 333 333 333 331 330 331 332 331 329 326 324 322 322 323 324 330 334 334 332 332 331 331 330 327 326 324 322 316 316 318 318 323 328 329 330 330 330 330 331
330 332 333 332 331 331 335 330 330 330 329 327 325 323 322 321 321 322 321 324 329 330 333 332 332 331 325 317 315 318 314 313 314 314 316 323 327 328 329 330 330 330 331
329 330 332 331 331 330 331 328 329 327 325 324 323 322 321 321 319 320 319 319 321 321 323 326 324 322 318 316 316 316 316 314 313 313 316 322 326 328 329 329 330 331 331
325 329 331 332 331 329 328 328 329 328 325 323 321 321 320 318 316 316 317 318 318 318 317 317 317 318 317 316 316 316 316 315 314 314 315 318 324 328 330 330 330 331 332
324 327 329 331 330 330 326 326 326 329 327 325 322 320 320 318 316 316 316 316 316 316 315 314 314 314 314 314 316 316 315 315 315 315 315 316 320 326 329 330 331 331 331
325 326 327 330 330 330 328 325 326 327 327 325 324 322 321 320 318 317 316 315 314 315 315 314 314 314 314 315 315 315 315 315 315 315 315 315 319 323 327 330 331 331 331
325 327 325 328 328 327 327 325 325 326 326 325 325 323 322 321 319 318 317 316 315 314 315 314 313 314 313 314 313 314 315 315 315 315 314 314 315 318 322 327 330 330 331
326 325 327 328 327 325 327 326 325 325 324 325 324 324 323 323 322 319 318 317 317 315 314 313 313 312 311 311 311 313 313 313 314 314 314 313 313 314 317 323 326 328 330
327 326 326 326 325 324 324 325 325 324 324 323 322 322 323 324 323 322 321 320 317 316 315 314 312 311 310 311 311 313 312 312 314 315 313 313 313 314 313 317 319 321 326
325 327 327 327 326 325 324 323 322 321 322 323 322 322 322 323 323 322 321 320 318 316 315 313 312 311 310 310 311 312 310 312 313 313 314 314 313 313 313 313 313 313 317
323 324 325 326 326 325 323 321 321 319 320 319 321 323 322 322 322 321 321 317 318 318 318 315 314 312 310 309 308 309 311 313 314 315 316 313 312 313 313 313 313 313 314
320 323 325 326 327 325 325 325 324 323 322 322 321 321 322 322 322 322 321 319 318 318 315 315 313 310 310 310 309 306 306 307 308 312 312 312 312 313 313 314 314 314 313
318 321 324 326 327 327 327 325 321 319 318 318 319 319 318 321 321 321 321 321 318 318 317 315 314 312 312 309 312 308 304 302 303 310 310 310 311 311 313 314 315 316 317
316 321 324 326 327 327 327 324 322 321 320 322 322 322 320 318 319 320 321 320 319 318 318 317 317 315 313 312 308 313 312 307 304 303 308 310 311 311 313 314 315 318 318
313 318 323 325 326 327 327 327 324 322 324 324 322 321 321 321 319 319 319 319 318 318 318 318 316 315 316 314 313 307 310 312 310 309 307 307 308 311 313 314 315 317 317
308 316 319 321 324 326 326 326 325 323 323 323 322 321 322 322 321 319 319 319 319 318 318 317 317 316 316 316 316 314 312 309 311 311 310 310 310 310 313 313 313 316 316
Wind_Speed
4 6 10 15 16 16 17 14 12 11 12 12 11 13 13 13 13 13 13 14 14 14 15 15 16 16 16 17 17 17 17 17 15 15 16 15 16 17 18 17 13 10 14
7 6 10 14 15 16 15 15 13 10 12 12 12 13 14 13 13 13 13 14 13 14 13 14 16 14 15 13 14 16 15 15 14 14 14 13 13 14 16 15 15 12 14
8 7 7 11 13 15 15 13 10 12 11 12 12 11 14 13 12 13 12 12 12 14 14 14 14 14 13 11 12 12 15 13 12 9 9 5 6 15 13 14 13 13 12
10 7 6 10 12 12 14 12 10 10 10 9 12 12 15 13 12 11 13 11 12 12 13 13 13 12 11 11 12 12 14 11 10 8 5 4 6 13 13 12 11 12 17
9 9 8 11 12 12 13 10 10 10 9 8 7 12 11 13 13 11 11 11 10 11 12 11 10 10 10 10 11 11 9 8 8 6 6 6 4 9 12 12 11 11 13
6 7 10 11 12 13 12 10 10 10 9 8 3 13 10 14 12 11 9 9 10 8 10 10 9 8 8 9 11 11 7 7 6 5 5 7 6 10 11 11 10 10 10
6 6 7 11 13 13 12 11 10 10 10 8 6 11 11 12 13 11 9 8 8 7 8 7 7 6 6 8 10 10 7 8 4 4 5 5 5 9 9 9 8 10 11
9 7 6 8 10 11 12 11 10 9 9 7 6 10 11 10 12 12 10 7 7 7 7 6 4 3 4 6 8 9 8 4 3 3 3 4 7 7 8 7 6 7 8
6 7 5 6 8 9 10 9 9 9 8 7 5 8 9 10 10 10 10 7 8 7 7 6 4 1 2 4 5 7 7 3 3 2 2 2 7 7 7 6 4 5 6
6 6 7 5 6 5 6 10 8 8 8 9 8 5 5 6 7 7 7 10 8 7 7 5 4 2 1 2 4 5 5 5 1 1 2 2 4 5 5 4 3 3 3
5 6 6 6 5 6 5 6 9 9 7 6 7 7 5 2 4 6 4 7 10 6 7 7 6 4 2 3 5 6 4 2 1 1 1 6 4 4 4 3 4 3 2
11 8 7 7 7 5 5 6 5 5 5 5 5 5 4 3 3 4 4 6 8 8 6 7 6 5 2 1 2 4 2 2 2 3 2 7 6 6 5 5 4 4 5
9 7 9 8 7 7 5 4 3 3 3 3 6 5 5 3 3 2 2 2 1 4 2 3 2 1 3 2 3 3 4 4 2 3 4 8 7 8 7 7 6 6 6
8 10 9 9 9 8 4 5 5 4 4 3 4 6 4 3 3 3 3 4 3 2 4 3 2 3 4 5 5 6 5 4 3 3 4 7 9 10 10 9 9 9 8
11 10 10 10 10 9 7 5 5 6 6 6 5 5 4 5 5 4 4 3 4 3 3 3 4 4 4 5 5 6 6 6 6 3 3 7 9 11 12 12 11 10 10
13 14 11 11 11 9 9 8 7 6 6 6 6 7 8 5 5 5 4 4 4 4 4 4 4 4 4 4 6 6 6 6 6 5 4 4 8 11 12 13 13 12 11
13 13 13 13 12 11 11 8 7 6 6 7 7 8 9 8 8 7 6 5 6 5 5 4 4 3 4 4 6 5 5 6 5 6 5 4 4 8 11 13 14 13 12
12 13 12 12 13 12 11 8 7 6 6 7 6 6 9 10 9 8 7 7 6 5 4 4 4 4 4 4 4 5 5 5 6 6 5 5 4 4 6 12 13 13 13
15 14 15 14 14 14 12 9 9 9 8 7 5 6 9 10 10 9 8 7 6 5 5 5 4 4 4 4 5 5 5 5 7 6 7 6 6 6 4 8 11 9 12
13 15 14 13 15 14 10 8 6 5 7 6 7 8 9 9 11 10 7 7 6 4 5 4 6 4 4 4 4 6 5 6 6 7 9 6 5 6 6 6 5 5 11
10 12 14 15 17 11 9 8 8 9 8 5 7 10 10 10 10 10 8 6 6 8 9 8 5 7 5 3 1 4 5 8 10 10 8 5 6 6 6 6 4 4 4
14 16 15 16 16 15 11 10 9 8 8 8 8 9 10 11 10 10 11 8 9 7 6 8 7 3 4 5 3 1 4 5 3 6 4 5 7 4 6 7 7 6 5
12 14 16 17 17 15 16 7 3 0 1 4 6 7 9 11 10 12 12 10 8 9 9 9 8 9 8 4 8 5 2 5 3 2 3 3 5 4 5 6 7 6 6
13 13 15 15 15 14 14 11 13 11 12 10 9 7 8 11 12 12 13 11 11 9 11 10 9 11 9 9 3 8 7 3 3 5 3 3 4 5 6 4 5 5 6
9 10 13 14 13 13 13 16 12 13 12 8 7 10 11 10 13 14 15 14 13 10 12 12 10 11 10 10 9 3 7 8 5 7 10 4 3 4 5 5 5 5 6
5 5 6 7 12 12 13 15 16 17 15 10 10 8 8 7 7 12 13 14 14 14 13 11 13 13 12 11 11 10 9 5 9 8 10 13 9 5 6 5 5 5 5
Wind_Direction
189 169 151 135 128 123 118 119 109 103 100 96 87 102 91 88 88 89 83 81 78 85 90 86 89 89 87 79 79 75 73 68 63 58 59 54 59 54 54 50 42 52 55
142 154 147 140 137 131 124 119 117 114 116 113 97 107 99 94 95 91 86 89 99 96 97 94 97 94 82 76 81 83 84 79 75 75 67 60 59 61 60 48 41 38 39
139 137 140 143 135 132 121 118 124 124 128 122 126 111 111 99 100 96 89 99 101 101 100 102 100 95 86 72 74 95 90 90 81 56 70 50 44 63 58 51 43 32 20
139 134 138 135 132 127 117 126 133 131 130 131 123 112 116 110 104 98 102 95 100 108 106 106 106 97 82 65 71 71 104 102 94 76 63 43 60 66 52 41 36 40 49
140 142 146 140 139 129 129 137 138 141 131 142 124 119 118 118 110 106 104 102 110 110 110 112 106 97 80 58 58 61 108 105 90 62 33 15 6 54 50 40 53 55 53
144 142 149 144 143 141 143 149 148 145 143 135 138 119 108 123 112 106 101 111 112 115 110 111 106 97 76 56 46 38 61 101 72 56 37 22 24 51 49 50 61 62 52
144 143 154 151 153 154 158 159 159 156 148 163 155 122 109 127 117 112 113 118 122 120 112 111 110 86 69 60 51 37 62 99 85 64 45 28 4 43 56 53 54 50 46
149 152 157 162 160 161 163 165 166 161 160 165 196 132 124 120 130 128 127 138 135 143 128 129 123 98 59 54 57 46 38 87 75 69 44 21 359 40 40 52 50 55 53
145 153 160 166 173 170 165 166 168 164 163 153 141 149 142 143 138 126 137 152 160 159 154 159 153 138 65 43 40 52 28 83 81 46 42 6 357 30 47 41 42 50 53
154 164 172 174 172 176 175 167 171 169 166 163 151 148 160 142 145 139 157 158 174 184 179 178 182 203 283 8 4 16 23 36 118 34 343 310 348 13 31 29 27 7 39
174 182 174 178 186 175 174 185 173 169 172 165 158 166 172 105 124 136 187 186 170 180 192 197 205 215 251 327 335 337 6 341 322 271 299 293 307 333 350 345 331 314 297
195 195 193 181 186 183 183 168 187 182 169 172 172 174 162 165 167 171 196 238 184 181 202 212 216 221 258 306 310 332 315 308 300 279 263 277 288 298 305 311 304 304 284
200 194 195 192 185 183 192 174 184 168 183 178 179 179 175 164 198 208 218 251 248 194 208 233 269 242 245 256 273 278 282 285 269 268 281 271 267 281 287 289 291 288 281
197 203 196 195 191 191 183 185 187 190 182 182 197 181 167 169 197 213 210 216 217 226 226 224 235 253 256 254 256 271 270 264 257 257 263 275 262 267 277 286 285 283 271
206 207 204 193 195 196 188 189 192 195 196 197 182 189 181 172 188 192 219 216 219 215 216 230 234 244 251 256 259 255 264 261 260 256 254 257 259 264 269 277 282 283 286
208 210 199 200 199 194 198 194 197 200 194 194 204 197 189 191 185 191 204 217 225 218 221 214 218 229 243 245 263 252 255 259 255 254 255 261 255 259 263 266 273 279 285
218 208 202 197 196 195 201 199 195 198 196 204 204 203 200 195 192 192 199 209 214 206 217 224 248 250 259 262 263 265 264 263 266 260 249 246 252 252 256 263 266 271 276
207 205 201 199 194 198 201 198 202 195 197 209 209 208 205 204 198 198 204 214 206 198 200 199 213 241 246 241 261 265 265 271 268 262 256 243 239 245 249 255 259 262 265
217 202 202 194 195 195 198 194 201 201 202 206 202 209 215 211 207 205 210 215 198 202 202 208 216 200 227 248 252 262 264 264 264 266 256 244 230 234 236 249 252 250 256
223 212 202 196 202 198 195 196 199 195 209 208 204 213 214 216 213 211 216 216 191 191 211 203 214 202 208 226 259 271 262 259 258 254 255 245 226 230 234 234 240 242 243
220 213 205 195 198 190 197 197 205 214 213 205 214 217 209 218 215 213 223 209 198 209 217 210 207 215 235 190 327 290 269 247 250 249 247 229 233 229 230 234 225 225 242
216 211 215 210 197 193 198 208 213 196 217 216 207 215 211 213 215 216 221 220 210 218 217 208 201 215 225 174 195 123 296 318 286 245 240 229 232 215 232 232 226 228 225
215 208 210 212 206 203 201 188 185 276 210 188 207 209 211 214 212 213 220 224 212 211 221 215 211 210 236 203 205 182 238 237 313 299 258 238 234 213 231 235 229 223 221
227 212 212 212 206 204 193 186 202 211 227 225 222 214 209 197 209 212 222 218 216 215 227 219 209 217 214 227 220 230 238 167 216 310 307 263 233 231 229 242 235 232 226
237 214 207 209 205 204 194 202 194 213 230 225 216 216 209 205 207 211 214 216 219 217 226 225 217 214 214 225 221 177 224 239 230 245 280 265 292 240 241 234 223 229 229
303 248 223 207 207 194 194 205 209 212 221 219 222 229 235 226 217 222 219 221 225 225 223 218 220 219 218 224 229 221 212 195 213 219 238 255 252 243 237 226 219 224 225